Flag for Malaysia Weather past 2 weeks in Johor Bahru, Malaysia

Now
73 °F

Fog.


Feels Like: 68 °F
Forecast: 77 / 88 °F
Wind: 1 mph from Northwest

Location: Johore Bharu / Senai

Current Time: Aug 22, 2014 at 2:54:41 AM

Latest Report: Aug 22, 2014 at 2:00 AM


Visibility: 3 mi

Pressure: 29.83 "Hg

Humidity: 100%

Dew point: 73 °F

Location of Johor BahruLocation

Historic Weather in Johor Bahru — Graph

°F

Johor Bahru temperature yesterday

Maximum temperature yesterday: 86 °F (at 11:00 AM)
Minimum temperature yesterday: 73 °F (at 12:00 AM)
Average temperature yesterday: 77 °F

Past Weeks' High & Low Weather Summary

 TemperatureHumidityPressure
High91 °F (Aug 9, 1:00 PM)100% (Aug 7, 3:00 AM)29.92 "Hg (Aug 7, 3:00 AM)
Low72 °F (Aug 20, 1:00 AM)59% (Aug 18, 2:00 PM)29.74 "Hg (Aug 12, 4:00 PM)
Average79 °F89%29.85 "Hg
* Reported Aug 7 1:00 AM — Aug 22 1:00 AM, Johor Bahru, Weather by CustomWeather, © 2014

Note: Actual official high and low records may vary slightly from our data, if they occured in-between our weather recording intervals... More about our weather records

Advertising

Johor Bahru weather history for previous 24 hours

 ConditionsComfort  
Time TempWeatherWind HumidityBarometerVisibility
1:00 AM
Aug 22
73 °FPassing clouds.No wind100%29.83 "Hg4 mi
12:00 AM75 °FPassing clouds.1 mph94%29.86 "Hg5 mi
11:00 PM
Aug 21
75 °FPassing clouds.No wind94%29.86 "HgN/A
10:00 PM75 °FPassing clouds.1 mph100%29.83 "HgN/A
9:00 PM77 °FPassing clouds.1 mph94%29.83 "HgN/A
8:00 PM79 °FPassing clouds.3 mph89%29.80 "HgN/A
7:00 PM79 °FPartly sunny.2 mph89%29.80 "HgN/A
6:00 PM81 °FPartly sunny.1 mph84%29.80 "HgN/A
5:00 PM77 °FPartly sunny.1 mph94%29.77 "HgN/A
4:00 PM75 °FLight rain. Broken clouds.2 mph94%29.77 "HgN/A
3:00 PM73 °FThunderstorms. Broken clouds.3 mph94%29.80 "Hg5 mi
2:00 PM73 °FStrong thunderstorms. Broken clouds.8 mph94%29.83 "Hg1 mi
1:00 PM79 °FThunderstorms. Broken clouds.10 mph84%29.83 "HgN/A
12:00 PM86 °FBroken clouds.3 mph75%29.83 "HgN/A
11:00 AM86 °FBroken clouds.3 mph75%29.86 "HgN/A
10:00 AM82 °FBroken clouds.1 mph84%29.86 "HgN/A
9:00 AM79 °FBroken clouds.1 mph89%29.86 "HgN/A
8:00 AM75 °FPartly sunny.1 mph94%29.86 "Hg4 mi
7:00 AM73 °FPassing clouds.No wind100%29.83 "Hg4 mi
6:00 AM73 °FPassing clouds.1 mph100%29.83 "Hg6 mi
5:00 AM73 °FPassing clouds.1 mph100%29.80 "HgN/A
4:00 AM73 °FPassing clouds.2 mph100%29.80 "HgN/A
3:00 AM73 °FPartly cloudy.1 mph100%29.83 "HgN/A
2:00 AM73 °FPassing clouds.No wind100%29.83 "HgN/A
Weather by CustomWeather, © 2014

See weather overviewHow to use our weather pages